TimeHST,TemperatureF,Dew PointF,Humidity,Sea Level PressureIn,VisibilityMPH,Wind Direction,Wind SpeedMPH,Gust SpeedMPH,PrecipitationIn,Events,Conditions,WindDirDegrees,DateUTC
12:53 AM,66.0,57.9,75,30.02,10.0,SW,6.9,-,N/A,,Scattered Clouds,230,2012-11-01 10:53:00
1:53 AM,66.0,55.9,70,30.00,10.0,SW,8.1,-,N/A,,Partly Cloudy,230,2012-11-01 11:53:00
2:53 AM,66.0,53.1,63,29.99,10.0,SW,8.1,-,N/A,,Partly Cloudy,230,2012-11-01 12:53:00
3:53 AM,64.9,54.0,68,29.99,10.0,WSW,8.1,-,N/A,,Partly Cloudy,240,2012-11-01 13:53:00
4:53 AM,64.9,53.1,65,29.99,10.0,SW,6.9,-,N/A,,Partly Cloudy,230,2012-11-01 14:53:00
5:53 AM,66.0,53.1,63,30.00,10.0,SW,8.1,-,N/A,,Scattered Clouds,230,2012-11-01 15:53:00
6:53 AM,66.0,51.1,59,30.01,10.0,SW,9.2,-,N/A,,Partly Cloudy,230,2012-11-01 16:53:00
7:53 AM,71.1,55.0,57,30.01,10.0,WSW,6.9,-,N/A,,Clear,240,2012-11-01 17:53:00
8:53 AM,78.1,60.1,54,30.02,10.0,SSW,4.6,-,N/A,,Partly Cloudy,210,2012-11-01 18:53:00
9:53 AM,80.1,60.1,50,30.03,10.0,SSE,3.5,-,N/A,,Clear,150,2012-11-01 19:53:00
10:53 AM,80.1,61.0,52,30.02,10.0,NE,8.1,-,N/A,,Scattered Clouds,40,2012-11-01 20:53:00
11:53 AM,81.0,63.0,54,30.00,10.0,NE,10.4,-,N/A,,Overcast,40,2012-11-01 21:53:00
12:53 PM,82.9,64.0,53,29.98,10.0,NE,10.4,-,N/A,,Scattered Clouds,40,2012-11-01 22:53:00
1:53 PM,79.0,63.0,58,29.96,10.0,ENE,8.1,16.1,N/A,,Partly Cloudy,70,2012-11-01 23:53:00
2:53 PM,79.0,64.0,60,29.95,10.0,East,10.4,-,N/A,,Overcast,100,2012-11-02 00:53:00
3:53 PM,78.1,64.0,62,29.95,10.0,ENE,9.2,-,N/A,,Overcast,70,2012-11-02 01:53:00
4:53 PM,75.9,64.0,67,29.96,10.0,East,5.8,-,N/A,,Partly Cloudy,100,2012-11-02 02:53:00
5:53 PM,73.9,64.0,71,29.97,10.0,ESE,3.5,-,N/A,,Mostly Cloudy,110,2012-11-02 03:53:00
6:53 PM,73.0,64.9,76,29.99,10.0,Calm,Calm,-,N/A,,Scattered Clouds,0,2012-11-02 04:53:00
7:53 PM,72.0,64.9,78,30.01,10.0,WSW,3.5,-,N/A,,Mostly Cloudy,240,2012-11-02 05:53:00
8:53 PM,70.0,64.0,81,30.02,10.0,SW,4.6,-,N/A,,Clear,230,2012-11-02 06:53:00
9:53 PM,69.1,64.0,84,30.03,10.0,SW,5.8,-,N/A,,Scattered Clouds,230,2012-11-02 07:53:00
10:53 PM,69.1,60.1,73,30.02,10.0,SW,6.9,-,N/A,,Mostly Cloudy,230,2012-11-02 08:53:00
11:53 PM,68.0,57.0,68,30.01,10.0,SW,6.9,-,N/A,,Mostly Cloudy,230,2012-11-02 09:53:00